Location: Pasadena-CA
(34.1440°N, 118.1100°W)
Time: 02:46:47
(UTC-07:00)

Oscar 19 - Visible Passes

Search period start: 30 June 2022 00:00
Search period end: 10 July 2022 00:00
Orbit: 772 x 790 km, 98.8° (Epoch: 29 June)

Date Brightness Start Highest point End Pass type
(mag) Time Alt. Az. Time Alt. Az. Time Alt. Az.
30 Jun 11.1 04:04:32 10° NNE 04:09:35 58° ESE 04:14:09 12° S visible
01 Jul 12.4 03:33:09 10° NE 03:37:27 27° E 03:41:42 10° SSE visible
01 Jul 11.6 05:12:15 10° N 05:16:38 29° WNW 05:21:00 10° SW visible
02 Jul 13.2 03:03:11 10° ENE 03:05:11 12° E 03:07:10 10° ESE visible
02 Jul 10.7 04:39:44 10° N 04:44:47 62° WNW 04:49:48 10° SSW visible
03 Jul 11.0 04:07:44 10° NNE 04:12:48 62° ESE 04:17:21 13° S visible
04 Jul 12.3 03:36:17 10° NE 03:40:40 29° E 03:44:54 11° SSE visible
04 Jul 11.7 05:15:33 10° NNW 05:19:50 28° WNW 05:24:07 10° SW visible
05 Jul 13.1 03:06:03 10° ENE 03:08:25 13° E 03:10:47 10° ESE visible
05 Jul 10.8 04:42:58 10° N 04:48:00 58° WNW 04:52:59 10° SSW visible
06 Jul 10.9 04:10:56 10° NNE 04:16:01 66° ESE 04:20:32 13° S visible
07 Jul 12.1 03:39:25 10° NE 03:43:55 31° E 03:48:05 11° SSE visible
08 Jul 13.1 03:08:59 10° ENE 03:11:40 14° E 03:14:21 10° SE visible
08 Jul 10.9 04:46:13 10° N 04:51:12 54° WNW 04:56:10 10° SSW visible
09 Jul 10.8 04:14:08 10° NNE 04:19:15 71° ESE 04:23:43 14° S visible
